Terug naar catalogus

AFR-1

ActiefAmateurradioSSO
NORAD 56964·PAYLOAD·🇮🇳 India

Gelanceerd Jun 12, 2023 vanaf Vandenberg Space Force Base

Loading…

Volgende Passages (komende 24 uur)

TLE

VersSource: Space-Track

Epoch: Sep 14, 2026, 13:39 UTC

1 56964U 23084AJ  26257.56924819  .00003746  00000-0  13468-3 0  9998
2 56964  97.6407  36.5253 0011019  31.2521 328.9371 15.29237193180885

Volg AFR-1 in realtime met AllMySat

Download on the App Store